Skip Page Navigation
NASA JPL Caltech
NASA Logo - Jet Propulsion Laboratory + View the NASA Portal
+ Center for Near-Earth Object Studies
JPL Home Earth Solar System Stars & Galaxies Technology
JPL Solar System Dynamics
BODIES ORBITS EPHEMERIDES TOOLS PHYSICAL DATA DISCOVERY FAQ SITE MAP
JPL Small-Body Database Browser
Search: [ help ]  
4014 Heizman (1979 SG10)
Classification: Outer Main-belt Asteroid          SPK-ID: 2004014
Ephemeris | Orbit Diagram | Orbital Elements | Mission Design | Physical Parameters | Discovery Circumstances | Close-Approach Data ]

[ show orbit diagram ]
Orbital Elements at Epoch 2459200.5 (2020-Dec-17.0) TDB
Reference: JPL 41 (heliocentric ecliptic J2000)
 Element Value Uncertainty (1-sigma)   Units 
e .03207093932534084 2.1007e-08  
a 3.420601280585905 1.8597e-08 au
q 3.310899384460051 7.9437e-08 au
i 1.107012880878005 4.374e-07 deg
node 270.6274125049309 1.7104e-05 deg
peri 106.2317071667975 3.3224e-05 deg
M 187.6564520552107 2.5198e-05 deg
tp 2460306.727973394612
(2023-Dec-28.22797339)
0.00016286 TDB
period 2310.745456799102
6.33
1.8844e-05
5.159e-08
d
yr
n .1557938798238211 1.2705e-09 deg/d
Q 3.530303176711759 1.9193e-08 au
  Orbit Determination Parameters
   # obs. used (total)      2634  
   data-arc span      25934 days (71.00 yr)  
   first obs. used      1950-03-21  
   last obs. used      2021-03-22  
   planetary ephem.      DE441  
   SB-pert. ephem.      SB441-N16  
   condition code      0  
   norm. resid. RMS      .46247  
   source      ORB  
   producer      Otto Matic  
   solution date      2021-May-03 21:21:50  

Additional Information
 Earth MOID = 2.31028 au 
 Jupiter MOID = 1.65099 au 
 T_jup = 3.142 
[ show covariance matrix ]

Ephemeris | Orbit Diagram | Orbital Elements | Mission Design | Physical Parameters | Discovery Circumstances | Close-Approach Data ]

Physical Parameter Table
Parameter Symbol Value Units Sigma Reference Notes
absolute magnitude H 12.39   n/a E2021B10  
diameter diameter 36.83 km 6.2 IRAS-A-FPA-3-RDR-IMPS-V6.0 IRAS observations used: 2
rotation period rot_per 9.36 h n/a LCDB (Rev. 2020-October); Warner et al., 2009 Result based on less than full coverage, so that the period may be wrong by 30 percent or so.
Published Reference List:
[Chang, C.-K.; Ip, W.-H.; Cheng, Y.-C.; Ngeow, C.-C.; et al. (2014) Astrophys. J. 788, A17.]
geometric albedo albedo 0.0206   0.009 IRAS-A-FPA-3-RDR-IMPS-V6.0 IRAS observations used: 2

4014 Heizman (1979 SG10)          Discovered 1979-Sep-28 by Chernykh, N. at Nauchnyj
Reference: DISCOVERY.DBLast Updated: 2003-08-29

[ show close-approach data ]
Alternate Designations
 1979 SG10 = 1977 KS1 = 1979 US3 = 1979 VL 
Ephemeris | Orbit Diagram | Orbital Elements | Mission Design | Physical Parameters | Discovery Circumstances | Close-Approach Data ]
ABOUT SSD CREDITS/AWARDS PRIVACY/COPYRIGHT GLOSSARY LINKS
FirstGov 2021-Jun-12 18:46 UT
(server date/time)  
NASA Home Page
Site Manager:   Ryan S. Park
Webmaster  Alan B. Chamberlin